KLM270 EHAM-EKCH

Flight info

Callsign KLM270
Flight time 1h 0m
Altitude 39000
Route ANDIK N873 JUIST DCT DOSUR P729 TUDLO
Aircraft A20N/M-SDE2E3FGHIRWXY/LB1

Departure

Time 2026-05-06 13:28
Airport Amsterdam Airport Schiphol (EHAM)

Arrival

Time 2026-05-06 14:29
Airport Copenhagen Kastrup Airport (EKCH)
Time Latitude Longitude Altitude Speed Heading
2026-05-06 13:08 52.30506 4.76552 -1 ft 0 kts 58°
2026-05-06 13:21 52.30502 4.76541 -2 ft 1 kts 58°
2026-05-06 13:21 52.30498 4.76530 -2 ft 1 kts 62°
2026-05-06 13:21 52.30494 4.76519 -2 ft 1 kts 69°
2026-05-06 13:22 52.30492 4.76507 -2 ft 1 kts 76°
2026-05-06 13:22 52.30490 4.76494 -2 ft 1 kts 83°
2026-05-06 13:22 52.30489 4.76486 -2 ft 1 kts 88°
2026-05-06 13:22 52.30489 4.76473 -2 ft 1 kts 95°
2026-05-06 13:23 52.30490 4.76457 -2 ft 1 kts 104°
2026-05-06 13:23 52.30491 4.76448 -2 ft 1 kts 109°
2026-05-06 13:23 52.30493 4.76438 -2 ft 0 kts 114°
2026-05-06 13:23 52.30493 4.76439 -2 ft 1 kts 114°
2026-05-06 13:24 52.30477 4.76475 -2 ft 8 kts 141°
2026-05-06 13:24 52.30405 4.76556 -2 ft 20 kts 150°
2026-05-06 13:24 52.30292 4.76509 -1 ft 21 kts 231°
2026-05-06 13:24 52.30210 4.76320 -1 ft 11 kts 246°
2026-05-06 13:25 52.30160 4.76189 -1 ft 19 kts 239°
2026-05-06 13:25 52.30061 4.75916 -1 ft 37 kts 238°
2026-05-06 13:25 52.29928 4.75574 -1 ft 39 kts 237°
2026-05-06 13:25 52.29868 4.75166 -1 ft 39 kts 301°
2026-05-06 13:26 52.30042 4.74831 -1 ft 34 kts 309°
2026-05-06 13:26 52.30188 4.74558 10 ft 31 kts 311°
2026-05-06 13:26 52.30302 4.74331 4 ft 27 kts 309°
2026-05-06 13:26 52.30385 4.74178 -1 ft 14 kts 314°
2026-05-06 13:27 52.30421 4.74053 -1 ft 8 kts 263°
2026-05-06 13:27 52.30408 4.73963 -2 ft 8 kts 259°
2026-05-06 13:27 52.30410 4.73906 -2 ft 6 kts 274°
2026-05-06 13:27 52.30441 4.73771 -3 ft 18 kts 351°
2026-05-06 13:28 52.30614 4.73771 -4 ft 41 kts
2026-05-06 13:28 52.31179 4.73836 -2 ft 120 kts
2026-05-06 13:28 52.32215 4.73884 162 ft 171 kts
2026-05-06 13:28 52.33503 4.73921 730 ft 197 kts
2026-05-06 13:29 52.34962 4.74294 1375 ft 230 kts 14°
2026-05-06 13:29 52.36556 4.75207 2109 ft 242 kts 25°
2026-05-06 13:29 52.37956 4.76629 2821 ft 241 kts 39°
2026-05-06 13:29 52.39152 4.78561 3542 ft 242 kts 49°
2026-05-06 13:30 52.40266 4.80703 4279 ft 246 kts 47°
2026-05-06 13:30 52.41431 4.82751 5003 ft 249 kts 46°
2026-05-06 13:30 52.42679 4.84786 5737 ft 254 kts 39°
2026-05-06 13:30 52.44252 4.86036 6456 ft 260 kts 13°
2026-05-06 13:31 52.46087 4.86110 7157 ft 266 kts 358°
2026-05-06 13:31 52.47935 4.85911 7861 ft 270 kts 357°
2026-05-06 13:31 52.49838 4.85718 8591 ft 273 kts 357°
2026-05-06 13:31 52.51745 4.85541 9333 ft 277 kts 358°
2026-05-06 13:32 52.53663 4.86032 10059 ft 283 kts 22°
2026-05-06 13:32 52.55301 4.87868 10752 ft 296 kts 46°
2026-05-06 13:32 52.56635 4.90558 11466 ft 308 kts 51°
2026-05-06 13:32 52.57954 4.93373 12189 ft 318 kts 51°
2026-05-06 13:33 52.59343 4.96342 12734 ft 335 kts 51°
2026-05-06 13:33 52.60802 4.99426 13169 ft 352 kts 50°
2026-05-06 13:33 52.62348 5.02670 13618 ft 360 kts 50°
2026-05-06 13:33 52.63895 5.05910 14006 ft 363 kts 50°
2026-05-06 13:34 52.65400 5.09065 14373 ft 364 kts 50°
2026-05-06 13:34 52.67003 5.12422 14776 ft 367 kts 50°
2026-05-06 13:34 52.68565 5.15696 15161 ft 367 kts 51°
2026-05-06 13:34 52.70156 5.19046 15574 ft 370 kts 51°
2026-05-06 13:35 52.71738 5.22379 15984 ft 371 kts 51°
2026-05-06 13:35 52.73339 5.25758 16403 ft 374 kts 51°
2026-05-06 13:35 52.74936 5.29131 16814 ft 376 kts 51°
2026-05-06 13:35 52.76564 5.32573 17241 ft 378 kts 51°
2026-05-06 13:36 52.78175 5.35980 17667 ft 380 kts 51°
2026-05-06 13:36 52.79812 5.39450 18104 ft 383 kts 51°
2026-05-06 13:36 52.81449 5.42923 18499 ft 386 kts 51°
2026-05-06 13:36 52.83094 5.46417 18875 ft 391 kts 51°
2026-05-06 13:37 52.84766 5.49975 19262 ft 393 kts 52°
2026-05-06 13:37 52.86441 5.53544 19659 ft 396 kts 52°
2026-05-06 13:37 52.88139 5.57166 20054 ft 400 kts 52°
2026-05-06 13:37 52.89843 5.60809 20461 ft 404 kts 52°
2026-05-06 13:38 52.91583 5.64533 20863 ft 408 kts 52°
2026-05-06 13:38 52.93319 5.68251 21286 ft 412 kts 52°
2026-05-06 13:38 52.95085 5.72041 21712 ft 414 kts 52°
2026-05-06 13:38 52.96856 5.75846 22146 ft 416 kts 52°
2026-05-06 13:39 52.98626 5.79656 22574 ft 420 kts 52°
2026-05-06 13:39 53.00411 5.83466 23014 ft 423 kts 51°
2026-05-06 13:39 53.02315 5.87247 23462 ft 426 kts 49°
2026-05-06 13:39 53.04244 5.90963 23836 ft 428 kts 49°
2026-05-06 13:40 53.06194 5.94724 24217 ft 430 kts 49°
2026-05-06 13:40 53.08144 5.98519 24604 ft 432 kts 50°
2026-05-06 13:40 53.10095 6.02348 24996 ft 434 kts 50°
2026-05-06 13:40 53.12056 6.06217 25398 ft 436 kts 50°
2026-05-06 13:41 53.13999 6.10063 25787 ft 439 kts 50°
2026-05-06 13:41 53.15977 6.13987 26193 ft 441 kts 51°
2026-05-06 13:41 53.17934 6.17873 26593 ft 443 kts 51°
2026-05-06 13:41 53.19915 6.21814 27023 ft 445 kts 51°
2026-05-06 13:42 53.21892 6.25754 27458 ft 447 kts 51°
2026-05-06 13:42 53.23909 6.29781 27882 ft 449 kts 51°
2026-05-06 13:42 53.25900 6.33763 28313 ft 451 kts 51°
2026-05-06 13:42 53.27924 6.37817 28761 ft 452 kts 52°
2026-05-06 13:43 53.29924 6.41829 29210 ft 453 kts 52°
2026-05-06 13:43 53.31959 6.45917 29672 ft 454 kts 52°
2026-05-06 13:43 53.33988 6.49999 30114 ft 455 kts 52°
2026-05-06 13:43 53.36002 6.54058 30507 ft 456 kts 52°
2026-05-06 13:44 53.38019 6.58131 30909 ft 457 kts 52°
2026-05-06 13:44 53.40063 6.62266 31319 ft 457 kts 52°
2026-05-06 13:44 53.42078 6.66349 31731 ft 458 kts 52°
2026-05-06 13:44 53.44097 6.70446 32148 ft 457 kts 52°
2026-05-06 13:45 53.46138 6.74594 32569 ft 457 kts 51°
2026-05-06 13:45 53.50258 6.82670 33455 ft 455 kts 45°
2026-05-06 13:45 53.52565 6.86244 33900 ft 453 kts 43°
2026-05-06 13:46 53.54899 6.89841 34275 ft 451 kts 43°
2026-05-06 13:46 53.57175 6.93384 34653 ft 448 kts 44°
2026-05-06 13:46 53.59414 6.97077 35039 ft 446 kts 45°
2026-05-06 13:46 53.61567 7.00749 35428 ft 442 kts 46°
2026-05-06 13:47 53.63733 7.04453 35821 ft 439 kts 45°
2026-05-06 13:47 53.65860 7.08071 36225 ft 435 kts 45°
2026-05-06 13:47 53.67987 7.11673 36631 ft 430 kts 45°
2026-05-06 13:47 53.70070 7.15195 37040 ft 425 kts 45°
2026-05-06 13:48 53.72137 7.18693 37407 ft 421 kts 45°
2026-05-06 13:48 53.74220 7.22220 37556 ft 422 kts 45°
2026-05-06 13:48 53.76293 7.25736 37723 ft 424 kts 45°
2026-05-06 13:48 53.78368 7.29260 37813 ft 426 kts 45°
2026-05-06 13:49 53.80480 7.32853 37959 ft 428 kts 45°
2026-05-06 13:49 53.82572 7.36415 38116 ft 430 kts 45°
2026-05-06 13:49 53.84667 7.39989 38256 ft 431 kts 45°
2026-05-06 13:49 53.86797 7.43629 38376 ft 433 kts 45°
2026-05-06 13:50 53.88905 7.47238 38505 ft 434 kts 45°
2026-05-06 13:50 53.91047 7.50909 38604 ft 436 kts 45°
2026-05-06 13:50 53.95325 7.58259 38795 ft 438 kts 45°
2026-05-06 13:51 53.99375 7.65238 38900 ft 441 kts 45°
2026-05-06 13:51 54.03528 7.72417 38906 ft 448 kts 45°
2026-05-06 13:52 54.07880 7.79962 38906 ft 455 kts 45°
2026-05-06 13:52 54.12349 7.87735 38905 ft 463 kts 45°
2026-05-06 13:53 54.16895 7.95668 38908 ft 471 kts 45°
2026-05-06 13:53 54.21501 8.03733 38906 ft 478 kts 45°
2026-05-06 13:54 54.26157 8.11914 38903 ft 480 kts 45°
2026-05-06 13:54 54.30693 8.19911 38904 ft 479 kts 45°
2026-05-06 13:55 54.35281 8.28027 38901 ft 480 kts 45°
2026-05-06 13:55 54.39912 8.36249 38901 ft 480 kts 46°
2026-05-06 13:56 54.44573 8.44552 38901 ft 480 kts 46°
2026-05-06 13:56 54.49176 8.52780 38893 ft 480 kts 46°
2026-05-06 13:57 54.53804 8.61082 38894 ft 480 kts 46°
2026-05-06 13:57 54.58424 8.69398 38897 ft 480 kts 46°
2026-05-06 13:58 54.63044 8.77744 38890 ft 480 kts 46°
2026-05-06 13:58 54.67649 8.86093 38889 ft 480 kts 46°
2026-05-06 13:59 54.72281 8.94519 38893 ft 481 kts 46°
2026-05-06 13:59 54.76875 9.02906 38894 ft 481 kts 46°
2026-05-06 14:00 54.80694 9.09900 38892 ft 481 kts 46°
2026-05-06 14:00 54.85304 9.18365 38899 ft 481 kts 47°
2026-05-06 14:01 54.89734 9.27118 38548 ft 482 kts 48°
2026-05-06 14:01 54.91950 9.31451 38129 ft 480 kts 48°
2026-05-06 14:01 54.94149 9.35752 37718 ft 478 kts 48°
2026-05-06 14:02 54.96371 9.40120 37307 ft 478 kts 49°
2026-05-06 14:02 54.98551 9.44425 36902 ft 478 kts 49°
2026-05-06 14:02 55.00764 9.48811 36519 ft 478 kts 49°
2026-05-06 14:02 55.02940 9.53136 36138 ft 478 kts 49°
2026-05-06 14:03 55.05139 9.57515 35759 ft 478 kts 49°
2026-05-06 14:03 55.07319 9.61863 35375 ft 478 kts 49°
2026-05-06 14:03 55.09388 9.66440 35007 ft 477 kts 58°
2026-05-06 14:03 55.11005 9.71445 34645 ft 475 kts 67°
2026-05-06 14:04 55.12178 9.76856 34283 ft 472 kts 76°
2026-05-06 14:04 55.13135 9.82311 33937 ft 472 kts 75°
2026-05-06 14:04 55.14124 9.87819 33525 ft 471 kts 75°
2026-05-06 14:04 55.15102 9.93257 33108 ft 471 kts 75°
2026-05-06 14:05 55.16085 9.98753 32698 ft 471 kts 76°
2026-05-06 14:05 55.17014 10.04231 32211 ft 473 kts 75°
2026-05-06 14:05 55.18024 10.09756 31563 ft 474 kts 75°
2026-05-06 14:05 55.19029 10.15198 30928 ft 473 kts 75°
2026-05-06 14:06 55.20027 10.20709 30393 ft 470 kts 75°
2026-05-06 14:06 55.20998 10.26181 29915 ft 465 kts 75°
2026-05-06 14:06 55.21932 10.31510 29381 ft 459 kts 75°
2026-05-06 14:06 55.22861 10.36865 28838 ft 452 kts 75°
2026-05-06 14:07 55.23765 10.42099 28309 ft 446 kts 75°
2026-05-06 14:07 55.24647 10.47221 27801 ft 440 kts 75°
2026-05-06 14:07 55.25530 10.52360 27253 ft 436 kts 75°
2026-05-06 14:07 55.26400 10.57444 26650 ft 433 kts 75°
2026-05-06 14:08 55.27263 10.62503 26142 ft 429 kts 75°
2026-05-06 14:08 55.28111 10.67483 25632 ft 424 kts 75°
2026-05-06 14:08 55.28945 10.72399 25135 ft 420 kts 75°
2026-05-06 14:08 55.29770 10.77274 24661 ft 417 kts 75°
2026-05-06 14:09 55.30592 10.82146 24177 ft 413 kts 75°
2026-05-06 14:09 55.31406 10.86982 23704 ft 409 kts 75°
2026-05-06 14:09 55.32209 10.91770 23182 ft 406 kts 75°
2026-05-06 14:09 55.32994 10.96462 22644 ft 403 kts 75°
2026-05-06 14:10 55.33786 11.01203 22096 ft 399 kts 75°
2026-05-06 14:10 55.34561 11.05862 21562 ft 396 kts 75°
2026-05-06 14:10 55.35327 11.10473 21051 ft 393 kts 75°
2026-05-06 14:10 55.36091 11.15084 20531 ft 390 kts 74°
2026-05-06 14:11 55.36843 11.19634 20031 ft 387 kts 74°
2026-05-06 14:11 55.37592 11.24180 19532 ft 384 kts 74°
2026-05-06 14:11 55.38331 11.28675 19051 ft 381 kts 74°
2026-05-06 14:11 55.39059 11.33115 18577 ft 378 kts 74°
2026-05-06 14:12 55.39782 11.37539 18088 ft 375 kts 74°
2026-05-06 14:12 55.40503 11.41954 17544 ft 372 kts 74°
2026-05-06 14:12 55.41215 11.46327 17007 ft 369 kts 74°
2026-05-06 14:12 55.41921 11.50673 16480 ft 367 kts 74°
2026-05-06 14:13 55.42608 11.54915 15973 ft 364 kts 74°
2026-05-06 14:13 55.43300 11.59201 15470 ft 361 kts 74°
2026-05-06 14:13 55.44166 11.63317 14960 ft 354 kts 63°
2026-05-06 14:13 55.45407 11.67009 14470 ft 344 kts 54°
2026-05-06 14:14 55.46747 11.70397 14028 ft 334 kts 54°
2026-05-06 14:14 55.48043 11.73726 13627 ft 323 kts 54°
2026-05-06 14:14 55.49285 11.76933 13194 ft 313 kts 54°
2026-05-06 14:14 55.50504 11.80091 12764 ft 307 kts 54°
2026-05-06 14:15 55.51709 11.83213 12349 ft 310 kts 54°
2026-05-06 14:15 55.52938 11.86399 11949 ft 311 kts 54°
2026-05-06 14:15 55.54139 11.89522 11546 ft 310 kts 55°
2026-05-06 14:15 55.55353 11.92697 11140 ft 308 kts 55°
2026-05-06 14:16 55.56544 11.95821 10742 ft 305 kts 55°
2026-05-06 14:16 55.57725 11.98924 10350 ft 303 kts 55°
2026-05-06 14:16 55.58900 12.02009 9959 ft 301 kts 55°
2026-05-06 14:16 55.60064 12.05068 9540 ft 298 kts 55°
2026-05-06 14:17 55.61220 12.08108 9106 ft 296 kts 55°
2026-05-06 14:17 55.62481 12.10906 8685 ft 293 kts 45°
2026-05-06 14:17 55.64006 12.13286 8266 ft 290 kts 39°
2026-05-06 14:17 55.65543 12.15574 7848 ft 288 kts 40°
2026-05-06 14:18 55.67070 12.17881 7434 ft 285 kts 40°
2026-05-06 14:18 55.68382 12.20487 7018 ft 283 kts 61°
2026-05-06 14:18 55.68940 12.23756 6588 ft 281 kts 86°
2026-05-06 14:18 55.68628 12.27109 6125 ft 276 kts 112°
2026-05-06 14:19 55.67511 12.29812 5652 ft 270 kts 136°
2026-05-06 14:19 55.66042 12.31857 5185 ft 266 kts 142°
2026-05-06 14:19 55.64577 12.33741 4732 ft 261 kts 141°
2026-05-06 14:19 55.63137 12.35671 4257 ft 255 kts 140°
2026-05-06 14:20 55.61733 12.37494 3939 ft 246 kts 150°
2026-05-06 14:20 55.60106 12.38254 3658 ft 241 kts 178°
2026-05-06 14:20 55.58506 12.37616 3371 ft 237 kts 205°
2026-05-06 14:20 55.57213 12.35863 3100 ft 234 kts 219°
2026-05-06 14:21 55.56017 12.33979 3004 ft 228 kts 218°
2026-05-06 14:21 55.54844 12.32165 3002 ft 224 kts 218°
2026-05-06 14:21 55.53655 12.30347 3000 ft 220 kts 218°
2026-05-06 14:21 55.52543 12.28651 2997 ft 206 kts 218°
2026-05-06 14:22 55.51430 12.27018 2991 ft 209 kts 207°
2026-05-06 14:22 55.50109 12.26375 3011 ft 193 kts 173°
2026-05-06 14:22 55.48913 12.27240 3003 ft 187 kts 134°
2026-05-06 14:22 55.48094 12.28999 2998 ft 185 kts 125°
2026-05-06 14:23 55.47352 12.30828 3000 ft 184 kts 121°
2026-05-06 14:23 55.46658 12.32720 2994 ft 184 kts 121°
2026-05-06 14:23 55.45960 12.34623 2994 ft 183 kts 120°
2026-05-06 14:23 55.45549 12.36678 2995 ft 172 kts 92°
2026-05-06 14:24 55.45797 12.38694 2999 ft 173 kts 66°
2026-05-06 14:24 55.46499 12.40468 2999 ft 177 kts 51°
2026-05-06 14:24 55.47371 12.41978 2996 ft 175 kts 46°
2026-05-06 14:24 55.48282 12.43415 2967 ft 176 kts 45°
2026-05-06 14:25 55.49143 12.44749 2798 ft 153 kts 45°
2026-05-06 14:25 55.49954 12.46014 2576 ft 156 kts 46°
2026-05-06 14:25 55.50726 12.47204 2361 ft 139 kts 46°
2026-05-06 14:25 55.51417 12.48276 2175 ft 130 kts 47°
2026-05-06 14:26 55.52102 12.49352 2017 ft 130 kts 47°
2026-05-06 14:26 55.52770 12.50418 1858 ft 129 kts 47°
2026-05-06 14:26 55.53434 12.51488 1672 ft 128 kts 47°
2026-05-06 14:26 55.54132 12.52498 1475 ft 131 kts 43°
2026-05-06 14:27 55.54854 12.53472 1324 ft 132 kts 45°
2026-05-06 14:27 55.55539 12.54562 1208 ft 131 kts 50°
2026-05-06 14:27 55.56202 12.55690 1085 ft 131 kts 50°
2026-05-06 14:27 55.56851 12.56808 814 ft 131 kts 47°
2026-05-06 14:28 55.57563 12.57852 516 ft 135 kts 43°
2026-05-06 14:28 55.58261 12.58923 319 ft 132 kts 46°
2026-05-06 14:28 55.58951 12.59969 111 ft 131 kts 46°
2026-05-06 14:28 55.59641 12.60995 21 ft 127 kts 46°
2026-05-06 14:29 55.60109 12.61769 24 ft 57 kts 39°
2026-05-06 14:29 55.60328 12.62067 19 ft 42 kts 39°
2026-05-06 14:29 55.60570 12.62325 30 ft 27 kts 13°
2026-05-06 14:29 55.60761 12.62396 25 ft 29 kts 25°
2026-05-06 14:30 55.60920 12.62602 25 ft 36 kts 40°
2026-05-06 14:30 55.61155 12.62989 26 ft 55 kts 47°
2026-05-06 14:30 55.61433 12.63407 28 ft 53 kts 39°
2026-05-06 14:30 55.61676 12.63779 24 ft 49 kts 40°
2026-05-06 14:31 55.61905 12.64103 27 ft 38 kts 24°
2026-05-06 14:31 55.62016 12.64191 22 ft 0 kts 24°
2026-05-06 14:31 55.62021 12.64195 22 ft 11 kts 25°
2026-05-06 14:31 55.62139 12.64297 17 ft 17 kts 25°
2026-05-06 14:32 55.62234 12.64399 17 ft 15 kts 49°
2026-05-06 14:32 55.62276 12.64521 19 ft 9 kts 70°
2026-05-06 14:32 55.62292 12.64595 21 ft 0 kts 68°
2026-05-06 14:32 55.62293 12.64602 20 ft 2 kts 68°
2026-05-06 14:33 55.62301 12.64636 19 ft 4 kts 67°
2026-05-06 14:33 55.62319 12.64706 23 ft 5 kts 65°
2026-05-06 14:33 55.62328 12.64738 22 ft 0 kts 64°
2026-05-06 14:34 55.62328 12.64739 22 ft 0 kts 64°
2026-05-06 14:35 55.62343 12.64757 23 ft 8 kts 25°
2026-05-06 14:35 55.62396 12.64738 21 ft 9 kts 315°
2026-05-06 14:35 55.62468 12.64561 22 ft 19 kts 302°
2026-05-06 14:35 55.62532 12.64375 20 ft 1 kts 302°
2026-05-06 14:36 55.62596 12.64187 22 ft 28 kts 300°
2026-05-06 14:36 55.62620 12.64119 21 ft 0 kts 312°
2026-05-06 14:36 55.62627 12.64115 21 ft 4 kts 339°
2026-05-06 14:36 55.62665 12.64119 20 ft 6 kts 24°
2026-05-06 14:37 55.62683 12.64141 20 ft 1 kts 34°
2026-05-06 14:37 55.62691 12.64149 19 ft 0 kts 30°
2026-05-06 14:38 55.62692 12.64148 19 ft 0 kts 30°